Yuma, AZ

2:28 AM MST on February 11, 2016 (GMT -0700)
Yuma Marine Corps Air Station

Weather History for KNYL - August, 2013

Change the Weather History Date:

Friday, August 9, 2013

  Actual Average Record
Temperature  
Mean Temperature 92 °F 95 °F  
Max Temperature 107 °F 106 °F 116 °F (1996)
Min Temperature 77 °F 83 °F 66 °F (1900)
Degree Days  
Heating Degree Days 0 0  
Month to date heating degree days 0 0  
Since 1 June heating degree days 0 0  
Since 1 July heating degree days 0 0  
Cooling Degree Days 27 30  
Month to date cooling degree days 258 270  
Year to date cooling degree days 3070 2816  
Since 1 June cooling degree days 2009 1904  
Growing Degree Days 42 (Base 50)    
Moisture  
Dew Point 37 °F    
Average Humidity 20    
Maximum Humidity 35    
Minimum Humidity 5    
Precipitation  
Precipitation 0.00 in 0.02 in 3.42 in (1989)
Month to date precipitation 0.00 0.14  
Year to date precipitation 1.58 1.76  
Sea Level Pressure  
Sea Level Pressure 29.75 in    
Wind  
Wind Speed 5 mph (SW)    
Max Wind Speed 14 mph    
Max Gust Speed 16 mph    
Visibility 10 miles    
Events      
T = Trace of Precipitation, MM = Missing Value Source: NWS Daily Summary

Daily Weather History Graph

Daily Weather History Graph

Search for Another Location

Airport or City:

Trip Planner

Search our weather history database for the weather conditions in past years. The results will help you decide how hot, cold, wet, or windy it might be!

Date:

Astronomy

Aug. 09, 2013 Rise Set
Actual Time 5:58 AM MST 7:29 PM MST
Civil Twilight 5:31 AM MST 7:55 PM MST
Nautical Twilight 5:00 AM MST 8:26 PM MST
Astronomical Twilight 4:27 AM MST 8:59 PM MST
Moon 8:35 AM MST (8/9) 8:55 PM MST (8/9)
Length of Visible Light 14h 23m
Length of Day
13h 30m
Waxing Crescent, 8% of the Moon is Illuminated
Aug 9
Waxing Crescent
Aug 14
First Quarter
Aug 20
Full
Aug 28
Last Quarter
Sep 5
New

Hourly Weather History & Observations

Time (MST) Temp. Dew Point Humidity Pressure Visibility Wind Dir Wind Speed Gust Speed Precip Events Conditions
12:57 AM 87.1 °F 32.0 °F 14% 29.74 in 10.0 mi West 5.8 mph - N/A   Partly Cloudy
1:57 AM 82.9 °F 36.0 °F 19% 29.73 in 10.0 mi Calm Calm - N/A   Partly Cloudy
2:57 AM 81.0 °F 39.0 °F 22% 29.73 in 10.0 mi West 5.8 mph - N/A   Partly Cloudy
3:57 AM 82.0 °F 43.0 °F 25% 29.73 in 10.0 mi NW 6.9 mph - N/A   Scattered Clouds
4:57 AM 80.1 °F 46.0 °F 30% 29.73 in 10.0 mi NNW 3.5 mph - N/A   Partly Cloudy
5:57 AM 78.1 °F 48.0 °F 35% 29.75 in 10.0 mi SSW 3.5 mph - N/A   Clear
6:57 AM 79.0 °F 44.1 °F 29% 29.76 in 10.0 mi SE 3.5 mph - N/A   Clear
7:57 AM 82.9 °F 46.0 °F 27% 29.78 in 10.0 mi Calm Calm - N/A   Clear
8:57 AM 90.0 °F 46.0 °F 22% 29.78 in 10.0 mi Variable 3.5 mph - N/A   Clear
9:57 AM 97.0 °F 37.0 °F 12% 29.79 in 10.0 mi WNW 9.2 mph - N/A   Clear
10:57 AM 100.0 °F 30.0 °F 9% 29.79 in 10.0 mi NW 10.4 mph - N/A   Partly Cloudy
11:57 AM 100.9 °F 24.1 °F 7% 29.77 in 10.0 mi West 4.6 mph - N/A   Partly Cloudy
12:57 PM 100.9 °F 24.1 °F 7% 29.76 in 10.0 mi South 3.5 mph - N/A   Partly Cloudy
1:57 PM 104.0 °F 25.0 °F 6% 29.75 in 10.0 mi SSE 3.5 mph - N/A   Partly Cloudy
2:57 PM 106.0 °F 23.0 °F 5% 29.73 in 10.0 mi SW 9.2 mph - N/A   Partly Cloudy
3:57 PM 106.0 °F 24.1 °F 6% 29.72 in 10.0 mi SE 6.9 mph - N/A   Partly Cloudy
4:57 PM 106.0 °F 24.1 °F 6% 29.70 in 10.0 mi SW 6.9 mph - N/A   Partly Cloudy
5:57 PM 106.0 °F 24.1 °F 6% 29.70 in 10.0 mi SSW 8.1 mph - N/A   Partly Cloudy
6:57 PM 102.9 °F 28.0 °F 7% 29.70 in 10.0 mi SSW 3.5 mph - N/A   Partly Cloudy
7:57 PM 98.1 °F 36.0 °F 11% 29.71 in 10.0 mi South 9.2 mph - N/A   Partly Cloudy
8:57 PM 93.0 °F 48.0 °F 21% 29.74 in 10.0 mi West 5.8 mph - N/A   Partly Cloudy
9:57 PM 91.9 °F 51.1 °F 25% 29.76 in 10.0 mi SW 8.1 mph - N/A   Partly Cloudy
10:57 PM 89.1 °F 46.9 °F 23% 29.78 in 10.0 mi Calm Calm - N/A   Clear
11:57 PM 84.9 °F 51.1 °F 31% 29.79 in 10.0 mi SW 3.5 mph - N/A   Clear